Погода Мыс Ванкерем

Погода Мыс Ванкерем : погода сейчас, прогноз погоды и архив. Всё, что Вы хотите узнать о погоде Мыс Ванкерем!

Поиск расширенной информации на нашем сайте:

Другие новости

Новости СМИ2

Главная страница сайта

Новости сайта

03.07.2017

Напоминаем, что на нашем специализированном сайте Метеоцентр.Азия вы можете получить высокодетализированные автоматические прогнозы погоды по пунктам России, СНГ и мира в авиационном формате (включающие направление и скорость ветра, видимость, явления погоды, количество и форму облачности, нижнюю и верхнюю границу облачности).


Погода Мыс Ванкерем - сегодня

Время (UTC), дата Ветер
(°,м/с) 
Видим.   Явления Облачность Т
(°С)
Тd
(°С)
f(%) Тe
(°С)
Pmin
(гПа)
dP
(гПа)
Po
(мм)
O2
(г/м3)
Тmin Tmax R s Состояние
почвы
09 14.11.18 320 (СЗ) 1{05}  20000 м    9/8 600 м средняя 
[Sc|Ac trans]
-13.7 -16.4 80 -14  1028.3  -0.9  771  328           
12 14.11.18 310 (СЗ) 4{07}  20000 м    9/5 600 м средняя 
[Sc|Ac trans]
-14.2 -16.9 80 -19  1027.5  -0.8  770  329           
15 14.11.18 320 (СЗ) 4{07}  20000 м    8/3 600 м средняя 
[Sc|Ac trans]
-14.9 -17.6 80 -20  1026.4  -1.2  769  329           
18 14.11.18 270 (З) 5{08}  20000 м    6/3 600 м средняя 
[Sc|Ac trans]
-15.1 -18.1 78 -21  1025.7  -0.7  769  329  -15.8      сухой снег
50-90% 
21 14.11.18 230 (ЮЗ) 4{06}  20000 м    4/0 средняя, верхняя 
[Ac trans|Ci fib]
-15.7 -19.1 75 -21  1025.7  769  330           
00 15.11.18 230 (ЮЗ) 2{05}  20000 м    4/0 средняя, верхняя 
[Ac lent|Ci fib]
-16.1 -20.3 70 -18  1025.1  -0.5  768  331           
03 15.11.18 210 (ЮЗ) 2{04}  20000 м    3/0 верхняя 
[Ci fib]
-16.6 -20.8 70 -19  1024.6  -0.5  768  331           
09 15.11.18 270 (З) 1{03}  20000 м    3/0 верхняя 
[Ci fib]
-17.9 -20.5 80 -18  1025.9  769  333           
12 15.11.18 270 (З) 1{03}  20000 м    3/0 верхняя 
[Ci fib]
-18.8 -21.4 80 -19  1025.6  0.6  769  335           
15 15.11.18 270 (З) 3{05}  20000 м    4/0 средняя, верхняя 
[Ac lent|Ci fib]
-19.7 -22.3 80 -24  1027.3  0.7  770  336           
18 15.11.18 320 (СЗ) 3{05}  20000 м    6/0 средняя, верхняя 
[Ac trans|Ci fib]
-17 -19.6 80 -21  1028.1  0.8  771  333  -20.2      сухой снег
50-90% 
21 15.11.18 300 (СЗ) 2{04}  20000 м    8/0 средняя, верхняя 
[Ac trans|Ci fib]
-16.1 -18.7 80 -18  1026.7  -1.4  770  331           
00 16.11.18 300 (СЗ) 2{04}  20000 м    10/6 600 м средняя 
[Sc|Ac und]
-15.5 -18.2 80 -18  1026  -0.7  769  330           
03 16.11.18 320 (СЗ) 2{04}  20000 м    10/8 600 м средняя 
[Sc|Ac und]
-13.8 -16.5 80 -16  1024.7  -1.2  768  327           
09 16.11.18 260 (З) 1{05}  10 км    9/4 600 м средняя 
[Sc|Ac trans]
-14.3 -17 80 -14  1022.3  -2  766  327           
12 16.11.18 270 (З) 1{04}  10 км    10/10 600 м 
[Sc]
-13 -15 85 -13  1020.6  -1.6  765  325           
15 16.11.18 360 (С) 5{07}  10 км    10/5 600 м средняя 
[Sc|Ac und]
-11.4 -13.4 85 -16  1018.7  -1.9  764  322           
18 16.11.18 360 (С) 5{08}  10 км    10/8 600 м средняя 
[Sc|Ac und]
-9.8 -11.9 85 -14  1016.6  -2.1  762  320  -14.3      сухой снег
50-90% 
21 16.11.18 350 (С) 3{06}  20000 м    10/10 600 м 
[Sc]
-9.4 -11.5 85 -12  1014.6  -2  761  318           
00 17.11.18 350 (С) 3{06}  20000 м    10/10 600 м 
[Sc]
-8.8 -10.7 86 -12  1012.7  -1.9  759  317           
03 17.11.18 360 (С) 5{07}  20000 м    10/4 600 м средняя 
[Sc|Ac und]
-7.2 -9.7 82 -11  1010.8  -1.9  758  315           
09 17.11.18 360 (С) 4{06}  10 км    10/0 средняя 
[Ac und]
-6.5 -8.5 86 -10  1008.4  -0.8  756  313           
15 17.11.18 360 (С) 6{08}  4000 м  слаб. снег  10/0 средняя 
[As op]
-6.4 -7.6 91 -11  1007.1  -0.5  755  312           
03 18.11.18 360 (С) 5{07}  4000 м  слаб. снег  10/0 средняя 
[As op]
-6.2 -8.9 81 -10  1009.1  1.5  756  313           
09 18.11.18 360 (С) 6{07}  4000 м  слаб. снег  10/0 средняя 
[As op]
-7.4 -10 82 -12  1009.1  0.9  756  314           
Время (UTC), дата Ветер
(°,м/с) 
Видим.   Явления Облачность Т
(°С)
Тd
(°С)
f(%) Тe
(°С)
Pmin
(гПа)
dP
(гПа)
Po
(мм)
O2
(г/м3)
Тmin Tmax R s Состояние
почвы

Для получения пояснительной информации подведите курсор к названию столбца.

ПОГОДА Мыс Ванкерем - архив

Всё, что Вы хотите узнать о погоде Мыс Ванкерем - удобно и подробно!

Выберите нужную дату (начиная с 1 января 2015* года) и нажмите кнопку "Найти".
Будут отображены архивные сводки погоды по пункту Мыс Ванкерем, начиная с указанной даты.


Отображать данные в формате CSV (для использования в таблицах Excel)


Внимание! Наш архив погоды предназначен исключительно для личного некоммерческого использования в познавательных целях. Если Вам необходимы официальные справки о состоянии погоды (для производственных, юридических, коммерческих и т.п. целей), обращайтесь в органы Росгидромета.

*Примечание: данная дата относится к архиву по метеостанциям СССР (Россия, СНГ, Балтия).
Архив по метеостанциям Зарубежной Европы и Азии (кроме Китая) хранится 10 дней, по другим регионам земного шара (Китай, Африка, Америка, Австралия, Океания) - 1 день.

Мыс Ванкерем - район местоположения метеостанции


Название, широта, долгота, высота метеостанции:
Мыс Ванкерем 67.83°ш. -175.8°д. 5 м над ур. моря [Российская Федерация]

Дополнительная информация

В oтличие oт бoльшинства пoгoдных сайтoв мы публикуем пoдрoбную метеoинфoрмацию в детальнoм прoфессиoнальнoм фoрмате.

Характеристики температуры и влажнoсти вoздуха измеряются на высoте 2 м в тени вдали oт зданий и деревьев.
Скoрoсть ветра измеряется на высoте 10 м (на урoвне рoста челoвека скoрoсть ветра ниже в 1.5-2 раза). Если метеoстанция нахoдится в гoрoде или в лесу, тo скoрoсть ветра занижена на 2-4 м/с пo сравнению с oткрытым местoм. Скoрoсть ветра над акватoриями крупных рек и oзёр, а также на вершинах хoлмoв на 2-5 м/с выше, чем в oбычных услoвиях.
Атмoсфернoе давление в разных тoчках местнoсти мoжет значительнo oтличаться oт давления на метеoстанции, в зависимoсти oт услoвий рельефа (при пoдъёме на 10 м давление пoнижается примернo на 1 мм рт.ст.).